Probability
6 10 20 27 22 9 1 0 0 0 0 0 0 0 0 0 0 0 0 1 1 1 1 0 0 0 1 3 5 6 4 1 0 1 0 0 0 1 2 2 1 0 0 0 0 0 0 0 0
8 16 26 27 16 5 0 0 0 0 0 0 0 0 0 0 0 0 0 1 1 0 0 0 0 1 1 2 4 4 3 1 1 1 1 0 0 0 1 1 0 0 0 0 0 0 0 0 0
15 25 32 24 9 1 0 0 0 0 0 0 0 0 0 0 0 0 0 0 0 0 0 0 1 2 2 3 3 3 3 1 1 2 2 0 0 0 0 0 0 0 0 0 0 0 0 0 0
26 31 30 16 4 0 0 0 0 0 0 0 0 0 0 0 0 0 0 0 0 0 0 0 1 2 2 3 2 2 2 1 1 1 1 0 0 0 0 0 0 0 1 1 1 0 0 0 0
32 30 21 8 1 0 0 0 0 0 1 0 0 0 0 0 0 0 1 0 0 0 0 0 1 2 2 2 1 1 1 0 0 0 0 0 0 0 1 1 0 1 2 2 2 1 0 0 0
31 24 13 4 0 0 0 0 0 0 0 0 0 1 1 0 0 0 1 0 0 0 0 0 1 1 1 1 0 0 0 0 0 0 0 0 1 1 2 2 2 2 3 3 3 2 1 0 0
25 17 7 2 0 0 0 0 0 0 0 0 0 1 1 0 0 0 1 0 0 0 0 0 0 0 0 0 0 0 0 0 0 0 0 1 2 3 4 4 3 2 2 3 3 3 2 1 0
14 9 3 0 0 0 0 0 0 0 1 1 1 2 3 2 1 0 0 0 1 1 1 0 0 0 0 0 1 1 1 0 0 0 1 3 3 3 4 4 3 2 2 2 3 3 4 3 2
6 4 1 0 0 0 0 0 0 1 2 2 3 6 7 4 2 1 0 0 1 2 2 1 0 0 1 1 1 2 1 0 0 1 3 4 2 2 3 4 5 6 4 3 4 5 6 6 5
2 1 0 0 0 0 0 1 2 2 3 5 8 11 10 6 3 1 0 1 2 3 3 1 1 1 1 0 1 2 1 0 0 1 2 2 2 2 2 3 8 10 7 6 6 7 7 7 6
1 0 0 0 0 0 0 1 2 3 3 7 11 13 11 7 4 3 2 1 2 3 3 3 2 2 1 0 0 0 1 1 1 1 2 1 1 2 2 3 6 7 7 7 7 6 5 5 5
0 0 0 0 0 0 0 0 1 2 4 9 13 12 9 6 6 6 4 2 2 2 3 3 4 4 3 1 1 1 1 2 2 2 1 1 1 3 3 2 2 3 5 5 5 4 3 3 3
0 0 0 0 0 0 0 0 1 3 6 11 13 11 7 7 8 8 6 4 2 1 1 3 6 7 5 3 3 2 2 2 3 3 2 1 2 4 3 2 2 3 4 5 4 4 3 3 3
0 0 0 0 0 0 0 0 1 4 7 10 10 9 8 8 9 8 7 5 3 2 2 3 6 8 7 5 4 3 2 2 2 4 4 2 3 4 4 4 5 6 6 7 6 5 4 3 3
0 0 0 0 0 1 1 1 2 4 6 7 8 9 10 10 8 7 6 5 5 6 6 5 5 6 7 6 3 2 1 1 3 5 7 6 5 6 7 7 7 8 9 9 8 7 5 4 4
0 0 0 0 1 2 2 3 4 4 6 8 10 11 12 10 7 5 4 5 7 9 10 6 3 5 7 6 4 1 0 1 4 6 8 8 8 9 10 9 8 8 9 8 8 7 6 5 5
0 0 0 0 1 2 3 3 4 5 6 9 12 13 13 9 7 4 3 4 8 11 11 7 4 5 7 7 6 4 2 2 5 9 11 11 11 11 11 10 9 7 7 8 8 7 7 6 6
0 0 0 0 0 1 1 2 4 6 8 10 14 15 13 10 7 5 3 5 10 15 15 11 7 7 10 11 10 10 8 7 9 13 16 15 13 13 12 10 9 8 9 10 11 10 9 8 7
0 0 0 0 0 0 1 2 4 7 10 12 15 16 13 10 9 8 7 7 13 21 23 19 15 14 15 16 16 17 16 14 14 17 20 19 17 15 13 11 10 11 13 14 15 15 14 12 11
0 0 0 0 0 1 2 3 4 7 11 14 14 13 12 11 12 13 11 10 15 26 30 26 24 22 21 21 22 22 19 17 18 21 24 22 18 16 15 13 14 15 16 18 19 20 19 16 14
0 0 0 0 0 1 2 3 5 8 11 13 13 11 10 11 14 17 14 11 16 28 32 31 31 29 26 25 24 23 19 18 20 24 28 25 19 17 17 16 15 16 18 20 21 21 21 19 16
0 0 0 0 0 0 1 2 7 10 12 14 13 11 10 11 14 17 15 12 17 26 32 38 40 38 34 29 25 23 19 17 19 23 27 26 21 18 18 16 15 14 15 17 18 19 20 19 17
0 0 0 0 0 0 0 2 7 11 12 14 14 11 10 11 14 17 17 15 18 24 32 42 48 46 40 31 26 24 20 17 17 19 21 22 22 20 18 17 16 14 12 13 16 16 15 16 16
0 0 0 0 0 0 0 2 6 10 11 12 13 12 11 12 15 17 18 18 20 25 31 40 48 49 43 34 26 23 22 19 16 15 16 18 20 20 19 19 19 16 13 13 14 14 13 13 14
0 0 0 0 0 0 0 1 5 8 9 11 13 14 14 14 14 14 15 18 21 24 28 36 44 47 44 39 31 26 23 21 18 14 13 14 15 17 19 22 22 19 16 14 13 13 13 13 13
0 0 0 0 0 0 1 3 7 9 11 12 14 15 15 14 12 12 14 17 21 24 27 34 43 47 47 45 39 34 29 23 19 15 12 11 10 11 17 22 23 22 20 17 15 14 14 15 16
0 0 0 0 0 0 1 6 10 13 13 13 14 15 14 12 12 14 17 19 21 24 28 35 44 47 47 46 43 39 33 26 21 18 15 11 9 11 17 23 25 25 23 22 21 20 19 20 21
0 0 0 0 1 0 1 5 10 13 13 14 15 15 15 14 16 18 21 22 23 25 29 36 42 44 43 41 38 34 30 27 23 21 19 16 15 19 24 28 29 29 28 28 27 25 23 23 23
0 0 0 0 0 0 1 3 7 10 12 15 17 18 19 20 20 22 23 24 25 27 31 36 38 40 39 36 33 31 29 26 23 21 22 22 23 28 32 35 34 31 30 30 28 25 24 24 24
0 0 0 0 0 0 1 3 6 8 11 16 19 21 24 23 22 24 25 25 25 28 32 35 36 38 38 35 33 33 32 28 22 20 23 25 29 33 37 39 35 31 30 29 27 24 23 25 25
Wind_Speed
9 10 8 5 4 0 9 12 13 12 12 12 12 12 14 13 9 9 8 10 12 12 11 12 12 13 13 13 13 13 13 13 12 12 12 11 11 10 10 9 9 9 9 8 8 7 7 6 6
9 10 7 4 2 5 9 11 12 12 10 11 12 14 16 15 13 11 9 11 13 13 11 12 12 12 12 13 13 13 12 12 12 12 11 11 10 10 9 8 8 8 8 8 7 7 7 6 6
11 11 6 4 3 7 10 10 11 11 9 11 13 14 12 11 12 9 10 12 13 14 13 12 12 11 12 12 12 12 12 12 11 11 10 10 9 9 8 8 7 7 7 7 7 6 6 5 5
7 6 5 1 7 10 11 10 10 11 11 12 12 12 11 10 11 12 12 13 14 15 14 13 13 12 13 13 12 11 11 11 11 10 9 9 8 8 8 7 7 7 6 6 6 5 5 5 4
8 5 2 2 9 11 10 10 10 10 12 14 15 15 12 12 14 14 12 13 14 15 14 13 14 14 14 13 12 11 11 10 10 10 8 7 7 7 7 7 7 6 6 5 5 5 4 4 3
6 4 1 4 10 11 10 9 10 10 12 14 16 15 11 11 12 12 12 12 13 14 14 13 14 14 13 12 11 10 10 9 9 8 8 7 6 6 6 6 6 6 5 5 4 4 3 3 3
7 3 1 6 9 10 9 9 9 10 10 11 13 14 12 11 11 11 11 12 12 13 13 13 12 12 12 12 11 10 9 8 8 7 7 6 6 6 6 5 6 6 5 5 5 4 4 4 4
5 2 3 6 9 9 9 9 9 10 10 9 10 12 12 13 12 12 11 11 10 10 11 12 12 11 11 10 10 10 9 8 7 7 7 7 7 7 8 7 7 6 6 6 5 5 5 5 6
5 2 3 6 7 7 8 9 9 10 11 11 13 16 16 16 14 13 11 10 9 9 8 10 11 10 10 10 11 10 9 8 8 7 9 7 5 5 6 8 9 9 8 7 7 6 6 6 7
1 1 4 6 7 7 8 8 7 9 12 13 16 17 17 15 14 13 12 11 10 9 9 7 8 9 8 7 8 6 7 7 6 4 5 4 4 3 4 8 10 10 9 8 8 8 8 7 5
1 2 3 6 7 6 6 7 8 9 9 13 16 17 15 14 13 11 11 11 10 10 8 9 8 7 6 5 5 3 3 4 4 5 4 3 3 3 3 3 5 6 8 5 5 7 5 5 3
1 2 2 4 5 5 5 7 9 8 11 14 16 16 14 13 11 11 11 11 10 9 8 8 8 6 4 4 3 3 2 3 3 3 3 2 1 1 2 2 3 3 3 3 3 3 4 4 3
1 1 2 2 4 5 6 7 9 10 13 15 16 14 13 12 10 10 10 10 9 9 8 8 7 6 4 2 1 3 2 2 3 3 2 2 1 1 1 1 1 2 2 2 2 2 2 2 2
2 1 2 2 4 5 5 6 8 10 12 14 14 12 12 11 11 10 9 9 9 8 7 7 7 7 4 3 1 1 2 2 2 3 3 2 1 1 1 1 0 1 1 2 2 3 2 2 2
4 2 2 3 3 5 5 3 6 10 13 13 13 11 11 11 11 10 10 9 9 8 7 6 7 7 4 3 3 2 2 2 1 2 3 2 1 2 1 2 2 1 1 2 2 2 1 2 2
6 4 5 6 6 6 6 5 7 10 12 12 12 11 10 10 10 10 10 9 9 8 7 5 6 8 5 3 2 1 1 1 1 2 2 2 1 2 1 2 2 2 2 1 1 1 1 1 1
8 6 6 6 5 6 5 7 11 13 12 12 12 12 11 10 10 10 10 10 9 8 7 4 3 6 5 4 2 2 1 1 1 1 2 2 2 2 1 1 1 2 1 1 1 1 1 1 1
7 6 5 4 5 5 4 6 11 13 13 12 12 12 12 12 11 11 10 11 10 9 7 6 4 4 5 4 2 1 1 1 1 1 1 2 2 2 2 2 2 2 1 1 1 0 1 1 1
9 6 6 4 4 3 4 6 8 11 12 13 12 13 13 12 12 12 11 11 11 10 9 7 6 5 3 3 2 2 2 1 1 1 2 2 2 2 2 1 2 1 1 1 1 1 1 1 1
10 8 5 5 4 3 2 2 6 9 11 12 14 13 14 13 12 12 11 11 11 11 9 8 7 6 5 3 2 2 2 2 2 1 2 2 1 1 2 2 2 1 1 1 1 1 1 2 1
11 9 7 7 5 5 3 3 5 6 8 11 12 13 13 13 14 13 12 11 11 11 10 9 8 7 6 4 3 2 2 2 2 2 2 2 1 2 1 1 1 1 1 1 2 1 2 2 1
9 9 9 8 8 7 6 4 6 7 8 11 12 12 12 13 13 13 12 12 11 11 10 8 7 6 6 5 4 4 3 2 2 2 2 2 2 2 2 1 1 1 0 1 2 2 2 1 1
10 10 10 9 10 9 6 6 6 9 8 10 11 12 12 13 13 13 12 11 10 11 11 9 8 6 6 5 5 4 3 2 1 2 2 2 2 2 2 2 2 1 1 1 1 1 1 1 2
10 11 9 8 8 10 9 8 5 7 10 11 12 12 11 12 12 11 11 10 9 9 9 9 8 7 6 6 5 5 4 3 2 2 2 2 2 2 2 2 2 1 1 1 1 1 2 1 2
12 10 6 6 7 9 9 7 4 8 10 10 11 12 12 11 11 11 10 10 9 8 8 8 8 7 6 6 5 5 4 4 3 3 3 3 2 2 2 2 2 2 2 2 1 2 2 2 2
11 11 9 8 8 8 7 6 5 6 6 7 9 10 11 11 10 10 10 10 8 8 8 8 8 7 6 6 5 4 4 3 3 3 3 3 2 1 2 2 2 2 2 2 1 2 2 2 2
12 12 12 10 11 9 5 2 1 2 5 7 8 9 9 10 9 9 9 10 9 7 7 8 8 7 6 6 5 4 4 3 3 2 2 2 1 2 2 2 2 2 2 2 1 2 2 2 2
14 12 9 8 7 8 5 4 3 6 6 7 7 7 8 8 8 9 8 9 9 9 8 7 8 7 6 5 5 4 4 3 2 3 2 2 1 1 2 2 2 1 1 1 1 2 1 2 2
12 13 11 8 8 8 6 4 4 8 9 9 9 7 7 7 8 8 8 7 7 7 7 6 7 7 6 5 4 4 4 4 4 3 3 2 1 1 2 2 2 2 2 1 1 2 2 2 2
12 13 12 10 9 9 7 3 2 2 5 7 8 8 7 6 7 7 7 7 6 6 5 5 5 6 6 5 4 4 3 3 4 3 3 3 2 2 2 2 2 3 2 2 2 2 2 2 3
Wind_Direction
191 207 213 237 244 191 61 58 56 58 60 58 60 70 67 57 64 87 105 108 106 107 110 110 106 106 108 111 111 109 110 112 111 110 110 108 107 109 114 114 112 111 111 112 113 112 111 111 110
217 216 224 242 260 67 67 68 64 61 69 74 67 69 72 67 76 97 109 111 111 113 112 106 108 109 111 113 111 110 111 111 111 110 111 112 112 111 110 112 115 115 115 113 112 113 115 116 119
245 245 252 242 62 70 71 72 77 77 74 82 80 62 60 73 85 101 116 118 113 108 106 107 109 113 118 118 115 114 114 115 116 115 115 114 115 114 113 113 116 117 115 115 116 117 121 123 125
241 231 243 286 69 70 75 80 82 83 72 70 81 77 71 74 95 110 121 120 115 112 110 109 108 111 119 121 120 118 118 118 118 117 117 116 117 118 119 120 121 123 125 126 124 122 121 123 131
237 258 248 67 79 80 77 80 84 84 83 83 84 89 85 87 104 117 122 118 116 114 112 116 113 111 114 116 120 121 119 120 120 121 120 122 125 126 128 127 129 131 132 130 128 130 132 138 152
256 243 251 90 84 84 84 85 82 84 95 101 101 99 94 105 115 122 122 119 118 116 118 121 122 121 120 120 121 122 123 124 127 130 133 137 139 139 142 143 142 141 140 140 142 148 159 172 191
257 294 358 82 90 86 86 87 85 86 85 95 106 106 115 123 128 124 121 120 119 122 125 131 135 133 130 130 130 128 131 135 138 145 151 151 152 157 158 164 161 157 154 157 164 174 187 200 214
257 300 31 74 83 84 85 87 87 89 84 96 109 113 128 134 135 127 124 119 118 122 128 136 138 140 142 141 142 142 143 148 156 159 166 169 177 181 179 179 176 172 172 178 186 193 205 219 230
270 319 40 71 85 90 93 92 93 96 92 80 82 108 127 136 135 135 131 128 125 123 132 136 138 145 144 146 147 155 154 164 174 179 184 188 195 191 185 180 172 178 184 190 195 205 219 227 234
206 49 48 63 84 94 95 101 112 111 106 99 99 112 129 139 143 143 141 140 135 135 136 137 138 142 146 141 143 167 167 168 186 178 179 194 198 200 168 158 174 182 190 197 203 212 223 231 229
81 92 57 73 85 90 95 101 96 104 112 121 124 130 138 145 148 144 142 143 142 145 145 141 135 135 137 132 148 162 158 161 178 173 177 190 189 166 148 157 172 188 196 204 197 210 224 227 232
119 111 88 84 95 102 96 92 93 93 105 120 128 136 142 149 149 146 145 143 142 145 144 138 136 132 125 121 134 160 166 159 159 161 176 167 168 166 154 168 171 190 193 196 201 218 224 234 232
193 134 90 101 115 100 94 91 90 96 108 118 128 139 148 149 147 138 133 138 141 138 139 133 123 117 112 108 171 158 152 148 156 159 166 178 167 141 135 155 168 192 180 184 213 232 228 246 249
257 170 157 174 150 142 121 111 112 120 124 128 136 146 151 147 144 137 140 141 135 133 133 128 131 131 137 157 206 179 171 162 166 153 145 172 138 123 144 187 227 217 188 188 211 221 216 228 237
281 274 264 224 206 154 125 103 129 141 137 138 145 150 149 149 147 151 149 147 140 136 134 137 148 144 159 177 196 189 191 159 149 140 137 157 146 151 194 182 206 216 205 203 204 217 215 222 226
257 242 237 218 199 160 154 158 173 156 149 148 150 150 152 152 157 155 149 147 141 142 141 165 161 148 159 183 198 204 181 122 147 140 140 155 168 181 200 193 180 208 213 199 189 189 212 219 239
251 241 230 221 204 176 177 157 162 166 156 155 155 155 159 161 163 155 153 151 147 143 146 162 147 146 159 176 201 205 146 138 163 127 133 152 177 176 190 205 174 213 195 189 219 145 200 218 231
260 266 252 240 210 190 179 156 159 163 162 162 162 161 165 169 170 163 162 156 153 151 155 163 158 152 164 173 208 193 156 185 169 131 142 166 182 182 190 187 204 221 162 151 102 132 240 227 241
264 272 266 266 238 210 192 159 161 170 168 166 166 168 171 172 168 166 167 163 159 159 161 167 171 166 178 182 200 184 171 196 179 161 160 154 181 187 191 204 203 213 170 158 165 205 241 236 235
258 262 263 271 257 227 191 182 173 177 178 172 170 175 173 170 165 165 170 169 166 165 167 169 173 177 195 191 194 189 191 200 173 183 145 143 181 199 190 191 213 203 167 167 193 191 281 270 215
256 262 262 261 268 245 186 246 202 195 191 172 169 173 171 171 168 167 174 175 170 167 172 178 178 180 195 191 192 194 187 214 175 162 154 161 186 186 233 173 207 214 189 174 191 208 226 247 257
264 265 265 267 262 254 229 234 209 186 201 177 171 172 172 171 169 170 176 180 176 171 171 169 168 177 181 185 193 198 201 211 192 173 159 176 185 190 200 184 222 227 224 175 216 201 249 253 263
267 272 278 275 270 267 249 245 214 178 194 180 175 176 175 173 171 171 176 178 176 171 169 166 165 171 174 186 193 208 205 202 196 176 182 195 186 186 197 179 217 230 209 213 233 252 267 267 271
265 268 271 279 278 267 260 255 214 189 190 189 180 173 172 170 169 165 168 165 168 166 163 161 161 169 176 187 193 202 209 202 197 195 193 208 198 193 195 189 200 216 219 231 209 235 240 261 294
250 254 259 263 256 258 259 256 216 189 183 181 173 168 169 165 163 162 163 159 159 159 158 154 158 167 174 182 190 192 201 202 200 207 204 215 207 192 191 189 195 206 210 222 216 239 243 235 248
253 248 246 256 257 256 241 234 206 165 147 147 154 154 157 158 159 156 161 157 157 160 159 156 157 168 175 179 186 182 189 209 209 213 216 217 213 176 180 174 191 208 212 228 226 239 247 233 239
252 252 254 259 265 268 263 257 98 117 141 151 151 150 153 151 151 150 151 153 154 163 161 161 157 163 173 178 178 179 188 212 216 213 223 217 226 191 175 173 176 195 199 212 222 242 242 231 232
248 259 265 258 266 279 270 261 200 196 171 162 157 163 150 142 147 151 152 150 155 166 163 156 156 163 167 168 179 183 192 199 204 218 216 226 212 209 171 176 175 181 201 211 210 238 241 237 247
236 243 252 267 265 267 263 257 205 189 178 176 168 163 150 147 151 152 147 147 148 153 154 153 151 160 165 170 175 177 184 194 202 209 206 220 229 209 189 190 197 203 206 209 221 241 240 233 253
248 253 255 256 264 269 274 255 231 187 159 162 150 136 136 141 146 146 144 144 147 146 144 143 154 163 165 160 165 174 180 190 205 209 208 207 216 218 207 203 212 220 213 216 221 252 252 243 247